BREEZE-M DEB, 38586

Orbit data source: Space-Track

BREEZE-M DEB, 38586 is space debris in HEO originally from a launch on Fri, 14 Mar 2008 UTC launched from the Tyuratam Missile And Space Complex (TTMTR). Debris objects in space refer to the collection of defunct objects orbiting the Earth. Examples of debris include non-operational satellites, rocket bodies, and fragments generated from explosions, collisions, or faulty payload assembly.

Loading next visibility...
Identifier
38586, 2008-011AH
Orbit
HEO
Country
Flag of CISCIS
Related business
Manufacturer
Unknown
Mission
Spacecraft
Bus & Motor
Unknown
Mass
Unknown
Launch date (UTC)
2008-03-14 (18 years ago)
Launch vehicle
Unknown
Launch site
Tyuratam Missile And Space Complex (TTMTR)
Object type
Payload
Rocket body
Debris
Shape & HBR
Unknown shape, 0.3 m
Radar Cross Section
Medium (>0.1 m² and <1 m²)

Expand to show TLE details & history
Last TLE update: 4 months ago

TLE from 4 months ago
0 BREEZE-M DEB
1 38586U 08011AH  26059.18419435 -.00000048  00000-0  00000-0 0  9990
2 38586  49.7007 352.4808 6257844 246.6809  38.2022  2.91964199158696
Epoch: 2026-02-28T04:25Z
TLE epoch observation values (Epoch: 2026-02-28T04:25:14.391Z)
Latitude
0.00001°
Longitude
128.15237°
Altitude
10,381.754 km
Speed
5.319 km/s
True Right ascension
23h 29m 53s
True Declination
0° 00' 00"
Sunlit
Object was in daylight at epoch
Visualization orbit readout
Latitude
Unknown
Longitude
Unknown
Altitude
Unknown
Speed
Unknown
Apparent Right ascension
Unknown
Apparent Declination
Unknown
Sunlit
N/A
Visualization observer readout
Local Sidereal Time
11:03:43
Azimuth
Unknown
Elevation
Unknown
Doppler factor
Unknown
Orbital elements
Apogee altitude
27,241.319 km
Perigee altitude
1,360.235 km
Semi-major axis
20,678.914 km
Eccentricity
0.62578
Inclination
49.7007°
RAAN
352.4808°
Arg. of periapsis
246.6809°
True anomaly
113.48362°
Mean anomaly
38.2022°
Eccentric anomaly
72.37368°
Mean motion
0.72988 °/min
Orbital period
493.23 mins
BSTAR
0
Loading maneuver chart data...
Computing Atmospheric mass density...
Loading historical data...
Loading historical data...
Loading historical data...
Loading historical data...
Loading historical data...
Loading historical data...
Loading historical data...

Documentation

Showing up to 5 results
|